EW1820 Weather Reports


Display with metric or nautical units.
time (UTC)temp
F
wind
direction
speed
MPH
gust
MPH
rain 1hr
in
rain 24hr
in
rain mn
in
humidity
%
barometer
mb
20260505100123 45 190 10.0 18.0 0.00 0.00 0.00 94 1011.5
20260505095549 45 157 8.0 16.0 0.00 0.00 0.00 94 1011.5
20260505095046 45 192 8.0 17.0 0.00 0.00 0.00 94 1011.5
20260505094550 45 186 9.0 17.0 0.00 0.00 0.00 94 1011.3
20260505094042 44 169 9.0 15.0 0.00 0.00 0.00 94 1011.3
20260505093543 44 159 8.0 16.0 0.00 0.00 0.00 94 1011.4
20260505093052 44 160 8.0 18.0 0.00 0.00 0.00 94 1011.3
20260505092545 44 180 9.0 18.0 0.00 0.00 0.00 94 1011.3
20260505092042 44 169 8.0 16.0 0.00 0.00 0.00 94 1011.3
20260505091612 44 169 7.0 16.0 0.00 0.00 0.00 94 1011.3
20260505091042 44 182 7.0 16.0 0.00 0.00 0.00 94 1011.3
20260505090542 44 157 7.0 16.0 0.00 0.00 0.00 94 1011.3
20260505090059 44 174 8.0 14.0 0.00 0.00 0.00 94 1011.4
20260505085545 44 172 6.0 11.0 0.00 0.00 0.00 93 1011.3
20260505085041 44 159 6.0 13.0 0.00 0.00 0.00 93 1011.3
20260505084549 44 177 7.0 13.0 0.00 0.00 0.00 93 1011.3
20260505084046 44 169 5.0 13.0 0.00 0.00 0.00 93 1011.4
20260505083544 44 164 5.0 16.0 0.00 0.00 0.00 93 1011.4
20260505083052 44 173 5.0 16.0 0.00 0.00 0.00 93 1011.4
20260505082543 44 191 7.0 15.0 0.00 0.00 0.00 93 1011.4
20260505082042 44 153 6.0 15.0 0.00 0.00 0.00 93 1011.4
20260505081553 44 163 6.0 15.0 0.00 0.00 0.00 93 1011.3
20260505081049 44 157 7.0 14.0 0.00 0.00 0.00 93 1011.4
20260505080544 44 187 8.0 14.0 0.00 0.00 0.00 93 1011.4
20260505080053 44 155 6.0 12.0 0.00 0.00 0.00 93 1011.4
20260505075543 44 137 7.0 14.0 0.00 0.00 0.00 93 1011.4
20260505075043 44 171 6.0 15.0 0.00 0.00 0.00 92 1011.3
20260505074552 44 167 5.0 15.0 0.00 0.00 0.00 92 1011.3
20260505074045 44 185 6.0 16.0 0.00 0.00 0.00 92 1011.4
20260505073545 44 167 9.0 16.0 0.00 0.00 0.00 93 1011.4
20260505073059 44 157 8.0 16.0 0.00 0.00 0.00 92 1011.4
20260505072547 44 157 7.0 14.0 0.00 0.00 0.00 92 1011.3
20260505072045 44 189 8.0 14.0 0.00 0.00 0.00 92 1011.4
20260505071552 44 169 6.0 16.0 0.00 0.00 0.00 92 1011.2
20260505071047 44 166 8.0 16.0 0.00 0.00 0.00 92 1011.2
20260505070545 44 164 8.0 16.0 0.00 0.00 0.00 91 1011.0
20260505070059 44 186 8.0 16.0 0.00 0.00 0.00 91 1010.9
20260505065541 45 185 9.0 16.0 0.00 0.00 0.00 91 1010.8
20260505065044 45 186 8.0 19.0 0.00 0.00 0.00 91 1010.6
20260505064607 45 194 10.0 19.0 0.00 0.00 0.00 92 1010.5
20260505064043 45 191 10.0 17.0 0.00 0.00 0.00 92 1010.3
20260505063544 45 175 8.0 15.0 0.00 0.00 0.00 92 1010.4
20260505063057 45 175 8.0 15.0 0.00 0.00 0.00 91 1010.4
20260505062544 45 179 8.0 16.0 0.00 0.00 0.00 91 1010.4
20260505062041 45 186 9.0 16.0 0.00 0.00 0.00 91 1010.5
20260505061601 45 173 7.0 14.0 0.00 0.00 0.00 91 1010.4
20260505061043 45 183 7.0 13.0 0.00 0.00 0.00 91 1010.4
20260505060548 45 182 7.0 13.0 0.00 0.00 0.00 91 1010.4
20260505060059 45 200 7.0 13.0 0.00 0.00 0.00 91 1010.4
20260505055545 45 171 6.0 15.0 0.00 0.00 0.00 90 1010.4
20260505055044 45 186 9.0 15.0 0.00 0.00 0.00 91 1010.4
20260505054623 45 191 6.0 12.0 0.00 0.00 0.00 90 1010.3
20260505054045 45 167 6.0 13.0 0.00 0.00 0.00 90 1010.5
20260505053544 45 171 7.0 13.0 0.00 0.00 0.00 90 1010.4
20260505053056 45 159 6.0 14.0 0.00 0.00 0.00 90 1010.4
20260505052546 45 163 6.0 14.0 0.00 0.00 0.00 90 1010.6
20260505052043 45 180 6.0 13.0 0.00 0.00 0.00 90 1010.5
20260505051551 45 147 7.0 12.0 0.00 0.00 0.00 90 1010.4
20260505051045 45 178 6.0 10.0 0.00 0.00 0.00 90 1010.5
20260505050543 45 151 4.0 11.0 0.00 0.00 0.00 90 1010.6
20260505041601 45 159 8.0 14.0 0.00 0.00 0.00 89 1010.7
20260505041045 45 181 8.0 14.0 0.00 0.00 0.00 89 1010.8
20260505040546 45 173 7.0 14.0 0.00 0.00 0.00 89 1010.8
20260505035544 45 188 7.0 13.0 0.00 0.03 0.00 89 1010.9
20260505035042 45 168 7.0 15.0 0.00 0.03 0.00 89 1010.9
20260505034550 45 161 8.0 15.0 0.00 0.03 0.00 89 1010.8
20260505034042 45 163 7.0 15.0 0.00 0.03 0.00 89 1010.7
20260505033542 45 191 8.0 15.0 0.00 0.03 0.00 89 1010.7
20260505033053 45 186 8.0 13.0 0.00 0.03 0.00 89 1010.6
20260505032544 45 164 6.0 16.0 0.00 0.03 0.00 88 1010.7
20260505032047 45 184 7.0 16.0 0.00 0.03 0.00 88 1010.3
20260505031550 45 166 8.0 17.0 0.00 0.03 0.00 88 1010.4
20260505031041 45 150 8.0 20.0 0.00 0.03 0.00 88 1010.4
20260505030544 45 179 9.0 20.0 0.00 0.03 0.00 88 1010.4
20260505030104 45 158 7.0 14.0 0.00 0.03 0.00 88 1010.3
20260505025541 45 179 8.0 14.0 0.00 0.05 0.03 88 1010.2
20260505025044 45 173 6.0 13.0 0.00 0.05 0.03 87 1010.3
20260505024556 45 180 6.0 14.0 0.00 0.05 0.03 88 1010.3
20260505024041 45 180 7.0 14.0 0.00 0.05 0.03 88 1010.2
20260505023545 45 180 7.0 15.0 0.00 0.05 0.03 88 1010.1
20260505023053 45 181 8.0 15.0 0.00 0.05 0.03 88 1010.0
20260505022542 45 198 7.0 14.0 0.00 0.05 0.03 88 1010.2
20260505022045 45 173 7.0 15.0 0.00 0.05 0.03 88 1010.1
20260505021558 45 200 8.0 15.0 0.00 0.05 0.03 88 1010.1
20260505021044 45 181 8.0 16.0 0.00 0.05 0.03 88 1010.0
20260505020544 45 149 8.0 16.0 0.00 0.05 0.03 88 1010.0
20260505015542 45 195 7.0 15.0 0.00 0.11 0.03 88 1009.9
20260505015049 45 190 6.0 13.0 0.00 0.11 0.03 88 1009.9
20260505014556 45 178 7.0 13.0 0.00 0.11 0.03 88 1009.8
20260505014045 45 178 7.0 13.0 0.00 0.11 0.03 88 1009.8
20260505013545 45 198 7.0 13.0 0.00 0.11 0.03 88 1009.8
20260505013054 45 172 6.0 13.0 0.00 0.11 0.03 89 1009.6
20260505012544 45 197 6.0 12.0 0.00 0.11 0.03 89 1009.6
20260505012046 45 196 6.0 12.0 0.00 0.11 0.03 89 1009.4
20260505011551 45 195 5.0 14.0 0.00 0.11 0.03 89 1009.5
20260505011043 45 196 7.0 14.0 0.00 0.11 0.03 88 1009.5
20260505010544 45 184 8.0 16.0 0.00 0.11 0.03 89 1009.4
20260505010107 45 177 8.0 16.0 0.00 0.11 0.03 89 1009.3
20260505005545 45 201 9.0 16.0 0.00 0.31 0.03 89 1009.3
20260505005043 45 193 9.0 15.0 0.00 0.31 0.03 89 1009.1
20260505004552 45 196 8.0 14.0 0.00 0.31 0.03 89 1009.1
20260505004041 45 200 9.0 16.0 0.00 0.31 0.03 89 1009.1
20260505003545 45 194 8.0 16.0 0.00 0.31 0.03 88 1008.9
20260505003053 45 190 9.0 15.0 0.00 0.31 0.03 88 1008.9
20260505002546 45 208 10.0 15.0 0.00 0.31 0.03 89 1008.9
20260505002046 45 180 8.0 14.0 0.00 0.31 0.03 88 1008.8
20260505001553 45 209 10.0 14.0 0.00 0.31 0.03 89 1008.9
20260505001047 45 217 7.0 16.0 0.00 0.31 0.03 89 1008.8
20260505000545 45 214 8.0 16.0 0.00 0.31 0.03 88 1008.8
20260505000100 45 205 9.0 14.0 0.00 0.31 0.03 88 1008.8
20260504235547 45 192 8.0 14.0 0.00 0.51 0.03 88 1008.7
20260504235042 45 206 7.0 14.0 0.00 0.51 0.03 88 1008.5
20260504234553 45 207 8.0 15.0 0.00 0.51 0.03 88 1008.5
20260504234045 45 204 8.0 15.0 0.00 0.51 0.03 88 1008.4
20260504233543 45 223 8.0 13.0 0.00 0.51 0.03 87 1008.4
20260504233057 45 181 9.0 15.0 0.00 0.51 0.03 87 1008.1
20260504232544 45 198 8.0 16.0 0.00 0.51 0.03 87 1008.0
20260504232044 45 206 9.0 16.0 0.00 0.51 0.03 87 1008.0
20260504231556 45 197 7.0 13.0 0.00 0.51 0.03 88 1008.1
20260504231045 45 209 8.0 14.0 0.00 0.51 0.03 87 1008.0
20260504230545 45 223 8.0 14.0 0.00 0.51 0.03 87 1007.9
20260504230110 45 223 8.0 14.0 0.00 0.51 0.03 87 1007.8
20260504225548 46 209 8.0 14.0 0.00 0.70 0.03 87 1007.6
20260504225047 46 213 9.0 16.0 0.00 0.70 0.03 87 1007.6
20260504224607 46 215 10.0 17.0 0.00 0.70 0.03 87 1007.5
20260504224045 46 215 10.0 17.0 0.00 0.70 0.03 87 1007.4
20260504223544 46 189 9.0 15.0 0.00 0.70 0.03 86 1007.2
20260504223100 46 181 8.0 16.0 0.00 0.70 0.03 85 1007.1
20260504222544 47 217 9.0 16.0 0.00 0.70 0.03 84 1007.2
20260504222043 47 184 10.0 20.0 0.00 0.70 0.03 85 1006.9
20260504221549 47 213 8.0 20.0 0.00 0.70 0.03 85 1007.0
20260504221043 47 182 7.0 16.0 0.00 0.70 0.03 86 1006.8
20260504220541 47 182 8.0 16.0 0.00 0.70 0.03 85 1006.7
20260504220056 47 173 9.0 18.0 0.00 0.70 0.03 85 1006.7
20260504215544 47 192 9.0 19.0 0.00 0.74 0.03 85 1006.6
20260504215044 47 173 11.0 19.0 0.00 0.74 0.03 84 1006.7
20260504214551 48 160 10.0 20.0 0.00 0.74 0.03 83 1006.9
20260504214045 48 184 8.0 20.0 0.00 0.74 0.03 84 1006.7
20260504213545 48 196 10.0 19.0 0.00 0.74 0.03 83 1006.9
20260504213048 49 199 10.0 22.0 0.00 0.74 0.03 82 1006.8
20260504212545 49 155 10.0 22.0 0.00 0.74 0.03 81 1006.9
20260504212045 50 170 8.0 18.0 0.00 0.74 0.03 82 1006.8
20260504211557 49 169 10.0 18.0 0.00 0.74 0.03 83 1006.8
20260504211043 49 207 8.0 17.0 0.00 0.74 0.03 84 1006.8
20260504210543 49 182 9.0 16.0 0.00 0.74 0.03 84 1006.9
20260504210101 48 159 8.0 16.0 0.00 0.74 0.03 86 1006.9
20260504205544 47 176 8.0 17.0 0.00 0.74 0.03 86 1007.0
20260504205041 47 180 9.0 17.0 0.00 0.74 0.03 86 1007.2
20260504204554 47 185 8.0 16.0 0.00 0.74 0.03 86 1007.2
20260504204041 47 173 8.0 19.0 0.00 0.74 0.03 86 1007.2
20260504203541 47 180 8.0 19.0 0.00 0.74 0.03 86 1007.3
20260504203048 47 186 8.0 16.0 0.00 0.74 0.03 86 1007.3
20260504202541 47 163 7.0 15.0 0.00 0.74 0.03 86 1007.3
20260504202041 46 192 7.0 15.0 0.00 0.74 0.03 86 1007.3
20260504201551 46 180 8.0 15.0 0.00 0.74 0.03 86 1007.3
20260504201044 46 166 9.0 15.0 0.00 0.74 0.03 86 1007.3
20260504200542 47 184 8.0 16.0 0.00 0.74 0.03 85 1007.4
20260504200101 47 183 8.0 18.0 0.00 0.74 0.03 85 1007.4
20260504195544 47 195 7.0 18.0 0.00 0.79 0.03 85 1007.5
20260504195042 47 197 10.0 18.0 0.00 0.79 0.03 85 1007.4
20260504194550 47 209 9.0 20.0 0.00 0.79 0.03 85 1007.3
20260504194041 47 201 9.0 20.0 0.00 0.79 0.03 85 1007.4
20260504193543 48 180 10.0 19.0 0.00 0.79 0.03 84 1007.4
20260504193051 48 190 9.0 18.0 0.00 0.79 0.03 85 1007.4
20260504192545 47 219 10.0 20.0 0.00 0.79 0.03 85 1007.2
20260504192044 47 175 10.0 20.0 0.00 0.79 0.03 84 1007.3
20260504191605 48 175 12.0 25.0 0.00 0.79 0.03 81 1007.2
20260504191045 50 205 11.0 25.0 0.00 0.79 0.03 81 1007.0
20260504190547 50 163 14.0 25.0 0.00 0.79 0.03 80 1007.0
20260504190051 51 188 12.0 25.0 0.00 0.79 0.03 79 1006.9
20260504185542 51 167 12.0 25.0 0.00 0.90 0.03 80 1006.9
20260504185043 51 213 11.0 24.0 0.00 0.90 0.03 80 1006.8
20260504184552 50 177 13.0 23.0 0.00 0.90 0.03 80 1006.8
20260504184043 50 186 13.0 23.0 0.00 0.90 0.03 80 1006.8
20260504183544 51 169 10.0 23.0 0.00 0.90 0.03 80 1006.9
20260504183050 50 188 11.0 23.0 0.00 0.90 0.03 80 1007.0
20260504182541 50 163 13.0 23.0 0.00 0.90 0.03 80 1007.0
20260504182044 50 205 14.0 23.0 0.00 0.90 0.03 79 1007.1
20260504181553 50 181 11.0 25.0 0.00 0.90 0.03 81 1007.0
20260504181041 49 180 12.0 26.0 0.00 0.90 0.03 81 1006.9
20260504180542 49 207 13.0 26.0 0.00 0.90 0.03 80 1006.9
20260504180051 50 203 13.0 26.0 0.00 0.90 0.03 79 1007.0
20260504175543 50 182 14.0 24.0 0.00 1.06 0.03 79 1006.8
20260504175045 50 194 13.0 24.0 0.00 1.06 0.03 79 1006.9
20260504174555 51 144 11.0 22.0 0.00 1.06 0.03 79 1006.9
20260504174044 51 186 11.0 23.0 0.00 1.06 0.03 78 1006.8
20260504173545 51 179 11.0 23.0 0.00 1.06 0.03 78 1006.8
20260504173056 51 182 9.0 24.0 0.00 1.06 0.03 78 1007.0
20260504172548 51 190 11.0 25.0 0.00 1.06 0.03 80 1007.0
20260504172043 50 196 13.0 25.0 0.00 1.06 0.03 78 1007.1
20260504171600 50 215 11.0 20.0 0.00 1.06 0.03 79 1007.2
20260504171043 50 206 11.0 20.0 0.00 1.06 0.03 80 1007.2
20260504170544 50 198 12.0 21.0 0.00 1.06 0.03 80 1007.2
20260504151042 47 205 13.0 21.0 0.00 1.66 0.03 84 1008.2
20260504150542 47 204 13.0 19.0 0.00 1.66 0.03 84 1008.2
20260504141043 46 220 12.0 17.0 0.00 2.01 0.03 84 1008.2
20260504140543 46 231 11.0 17.0 0.00 2.01 0.03 85 1008.2
20260504130545 45 230 11.0 18.0 0.00 2.11 0.03 86 1008.2
20260504120129 45 232 13.0 20.0 0.00 2.16 0.03 82 1007.8
20260504110545 43 254 16.0 25.0 0.00 2.19 0.03 84 1007.0
20260504100545 42 230 13.0 23.0 0.00 2.21 0.03 84 1005.9